Miami, FL

3:42 AM EDT on October 16, 2019 (GMT -0400)
Miami International

Weather History for KMIA - September, 2019

Change the Weather History Date:

Friday, September 20, 2019

  Actual Average Record
Temperature  
Mean Temperature 84 °F 83 °F  
Max Temperature 88 °F 89 °F 94 °F (1987)
Min Temperature 79 °F 77 °F 69 °F (1907)
Degree Days  
Heating Degree Days 0 0  
Month to date heating degree days 0 0  
Since 1 July heating degree days 0 0  
Cooling Degree Days 19 18  
Month to date cooling degree days 427 362  
Year to date cooling degree days 3905 3437  
Growing Degree Days 34 (Base 50)    
Moisture  
Dew Point 70 °F    
Average Humidity 66    
Maximum Humidity 74    
Minimum Humidity 57    
Precipitation  
Precipitation 0.12 in 0.35 in 3.74 in (1963)
Month to date precipitation 2.62 6.59  
Year to date precipitation 54.54 46.99  
Snow  
Snow 0.00 in - - ()
Month to date snowfall 0.0  
Since 1 July snowfall 0.0  
Since 1 September snowfall 0.0  
Snow Depth 0.00 in    
Sea Level Pressure  
Sea Level Pressure 29.99 in    
Wind  
Wind Speed 15 mph (ENE)    
Max Wind Speed 26 mph    
Max Gust Speed 37 mph    
Visibility 9 miles    
Events Rain    
T = Trace of Precipitation, MM = Missing Value Source: NWS Daily Summary

Daily Weather History Graph

Daily Weather History Graph

Search for Another Location

Airport or City:

Astronomy

Sep. 20, 2019 Rise Set
Actual Time 7:08 AM EDT 7:20 PM EDT
Civil Twilight 6:45 AM EDT 7:42 PM EDT
Nautical Twilight 6:19 AM EDT 8:09 PM EDT
Astronomical Twilight 5:52 AM EDT 8:36 PM EDT
Moon 11:42 PM EDT (9/20) 12:39 PM EDT (9/20)
Length of Visible Light 12h 57m
Length of Day
12h 11m
Waning Gibbous, 65% of the Moon is Illuminated
Sep 20
Waning Gibbous
Sep 21
Last Quarter
Sep 28
New
Oct 5
First Quarter
Oct 13
Full

Hourly Weather History & Observations

Time (EDT) Temp. Heat Index Dew Point Humidity Pressure Visibility Wind Dir Wind Speed Gust Speed Precip Events Conditions
12:53 AM 80.1 °F 82.7 °F 68.0 °F 67% 29.97 in 10.0 mi NE 13.8 mph 23.0 mph N/A   Partly Cloudy
1:53 AM 80.1 °F 82.3 °F 66.9 °F 64% 29.96 in 10.0 mi NE 10.4 mph - N/A   Partly Cloudy
2:53 AM 80.1 °F 82.7 °F 68.0 °F 67% 29.95 in 10.0 mi NE 10.4 mph - N/A   Scattered Clouds
3:53 AM 81.0 °F 84.1 °F 69.1 °F 67% 29.94 in 10.0 mi NE 12.7 mph - N/A   Scattered Clouds
4:53 AM 81.0 °F 83.8 °F 68.0 °F 65% 29.93 in 10.0 mi NE 9.2 mph - N/A   Mostly Cloudy
5:53 AM 80.1 °F 82.9 °F 69.1 °F 69% 29.94 in 10.0 mi NE 9.2 mph - 0.00 in   Mostly Cloudy
6:53 AM 81.0 °F 83.3 °F 66.9 °F 62% 29.96 in 10.0 mi NE 9.2 mph - N/A   Scattered Clouds
7:53 AM 79.0 °F - 69.1 °F 72% 29.97 in 10.0 mi NE 9.2 mph 19.6 mph N/A   Mostly Cloudy
8:53 AM 80.1 °F 83.6 °F 71.1 °F 74% 29.99 in 8.0 mi Variable 5.8 mph 16.1 mph 0.01 in Rain Light Rain
9:53 AM 82.0 °F 85.9 °F 70.0 °F 67% 30.01 in 10.0 mi ENE 19.6 mph - 0.00 in   Mostly Cloudy
10:53 AM 84.0 °F 88.4 °F 70.0 °F 63% 30.02 in 10.0 mi ENE 15.0 mph - N/A   Mostly Cloudy
11:53 AM 84.0 °F 88.4 °F 70.0 °F 63% 30.02 in 10.0 mi East 25.3 mph 32.2 mph 0.00 in   Mostly Cloudy
12:53 PM 81.0 °F 85.8 °F 73.0 °F 77% 30.01 in 10.0 mi ENE 17.3 mph 28.8 mph 0.03 in Rain Light Rain
1:28 PM 81.0 °F 85.2 °F 72.0 °F 74% 30.01 in 2.5 mi ENE 21.9 mph 35.7 mph 0.00 in Rain Light Rain
1:31 PM 80.1 °F 84.2 °F 73.0 °F 79% 30.01 in 5.0 mi ENE 16.1 mph 35.7 mph 0.08 in Rain Heavy Rain
1:53 PM 80.1 °F 83.8 °F 72.0 °F 76% 30.01 in 10.0 mi NE 19.6 mph 27.6 mph 0.08 in Rain Light Rain
2:53 PM 84.0 °F 89.0 °F 71.1 °F 65% 29.99 in 10.0 mi ENE 20.7 mph 28.8 mph 0.00 in   Mostly Cloudy
3:53 PM 86.0 °F 90.7 °F 70.0 °F 59% 29.99 in 10.0 mi East 25.3 mph 33.4 mph N/A   Mostly Cloudy
4:15 PM 86.0 °F 90.7 °F 70.0 °F 59% 29.99 in 10.0 mi ENE 20.7 mph 29.9 mph N/A   Mostly Cloudy
4:53 PM 82.9 °F 87.0 °F 70.0 °F 65% 29.99 in 8.0 mi ENE 17.3 mph 29.9 mph N/A   Mostly Cloudy
5:53 PM 82.0 °F 86.3 °F 71.1 °F 69% 30.00 in 9.0 mi ENE 17.3 mph 28.8 mph 0.00 in Rain Light Rain
6:53 PM 82.9 °F 85.8 °F 68.0 °F 60% 30.01 in 10.0 mi ENE 18.4 mph 29.9 mph 0.00 in   Mostly Cloudy
7:53 PM 82.9 °F 85.8 °F 68.0 °F 60% 30.02 in 10.0 mi ENE 15.0 mph 26.5 mph N/A   Mostly Cloudy
8:53 PM 82.9 °F 85.8 °F 68.0 °F 60% 30.03 in 10.0 mi ENE 20.7 mph 29.9 mph N/A   Overcast
9:53 PM 82.9 °F 86.5 °F 69.1 °F 63% 30.04 in 10.0 mi ENE 17.3 mph 27.6 mph N/A   Mostly Cloudy
10:53 PM 82.9 °F 86.5 °F 69.1 °F 63% 30.05 in 10.0 mi ENE 16.1 mph 27.6 mph N/A   Mostly Cloudy
11:53 PM 82.0 °F 85.9 °F 70.0 °F 67% 30.05 in 10.0 mi NE 12.7 mph 23.0 mph N/A   Mostly Cloudy